Location: Gleizolles
(44.4833°N, 6.7667°E)
Time: 15:53:22
(UTC+00:00)

Explorer 7 - Pass Details

Date: 25 June 2024
Orbit: 465 x 619 km, 50.3° (Epoch: 12 July)

Event Time Altitude Azimuth Distance (km) Brightness Sun altitude
Rises 14:50:35 0° 296° (WNW) 2,562 10.8 45.2°
Reaches altitude 10° 14:52:48 10° 293° (WNW) 1,659 10.0 44.9°
Maximum altitude 14:56:29 60° 213° (SSW) 545 8.0 44.2°
Drops below altitude 10° 15:00:03 10° 133° (SE) 1,614 9.0 43.6°
Sets 15:02:12 0° 130° (SE) 2,483 9.9 43.2°
